Theta_e
330 328 331 331 331 329 330 331 332 332 339 338 339 344 343 344 344 345 346 347 354 351 355 361 357 355 353 353 354 356 360 364 366 368 367 366 365 365 363 363 362 356 352 349
331 329 329 331 331 331 331 330 330 331 332 335 338 340 346 340 341 345 346 345 352 359 360 362 364 360 356 355 355 355 357 362 363 366 368 368 366 365 364 363 361 356 351 348
335 331 331 332 333 332 330 331 330 331 333 335 336 338 343 346 340 347 345 344 348 358 360 362 363 362 359 357 358 355 359 360 362 365 368 368 367 365 365 363 359 354 350 347
335 336 338 332 331 331 333 330 328 329 331 332 335 336 336 340 344 345 346 344 347 342 355 358 356 358 363 360 361 360 361 363 364 367 369 369 367 366 364 362 357 352 348 345
336 334 332 333 332 332 333 336 333 332 333 332 331 332 334 334 336 340 342 346 348 340 338 353 354 356 360 365 362 363 363 368 368 369 370 369 367 365 362 361 355 352 347 344
335 334 335 335 331 332 332 338 337 335 336 334 337 336 334 336 334 335 335 336 344 340 337 341 355 357 363 364 366 364 367 366 369 370 369 367 365 362 361 360 355 350 347 344
332 334 332 332 333 337 341 345 347 343 342 340 341 345 349 345 340 334 336 338 336 339 346 353 356 358 365 366 368 366 367 368 369 368 368 366 361 358 357 356 354 350 347 344
334 338 336 336 339 340 350 350 348 347 345 344 345 344 344 346 343 344 351 348 343 352 354 362 359 365 368 369 368 367 366 368 367 366 363 361 358 353 355 354 350 347 344 343
335 337 347 341 348 345 343 345 346 346 343 342 342 342 341 350 351 347 348 352 350 352 370 364 368 368 369 371 367 367 366 365 363 360 358 356 354 353 349 348 346 344 345 344
334 335 343 342 340 341 342 344 344 345 344 343 343 342 345 350 351 351 354 359 358 363 369 372 368 368 369 367 364 363 363 362 361 357 353 351 350 348 346 345 345 346 346 346
340 348 343 341 340 340 342 344 345 348 349 352 354 355 355 358 359 356 360 363 360 367 368 369 368 366 365 364 363 362 361 356 353 351 349 344 342 345 345 345 345 344 344 344
348 335 336 343 339 340 341 342 343 345 347 348 350 351 351 353 356 357 360 359 361 360 359 361 360 359 358 360 360 357 352 351 349 346 341 339 339 337 338 340 339 340 341 339
333 332 330 336 333 332 332 334 336 336 337 339 343 347 349 351 347 347 351 352 354 354 354 356 358 358 359 357 354 352 350 348 347 346 344 342 338 334 327 328 330 331 333 333
329 330 330 327 328 326 326 326 325 327 328 330 332 336 343 345 348 350 351 350 350 351 351 353 353 354 354 352 352 351 349 347 346 346 346 344 341 338 332 328 328 324 326 327
330 327 325 325 324 325 325 325 325 326 325 326 327 327 330 338 342 346 346 346 348 350 350 349 349 349 348 349 346 346 346 344 342 341 340 339 338 337 333 332 329 322 318 319
324 325 324 325 327 327 326 323 324 327 325 324 326 325 325 328 329 333 338 343 345 348 346 347 347 345 343 341 339 339 337 337 336 334 333 333 333 332 332 333 328 323 322 319
325 326 327 325 324 325 325 324 323 322 328 328 327 325 326 325 329 332 334 339 342 344 344 344 344 342 341 340 340 336 333 331 331 333 331 331 332 332 331 331 330 328 326 322
318 320 321 324 326 325 327 326 326 321 327 328 328 329 329 331 333 330 333 339 339 340 340 339 340 339 340 339 338 336 332 330 331 332 332 332 331 330 330 329 329 328 327 324
321 322 322 323 323 326 327 326 325 326 327 328 328 329 329 329 330 334 336 335 337 338 337 331 327 334 338 337 337 333 334 331 331 332 331 329 329 330 330 327 326 326 324 321
325 324 325 326 326 326 327 326 326 327 328 328 329 329 332 332 332 332 333 334 334 333 334 334 334 335 335 334 332 332 332 332 333 329 328 324 330 327 327 327 326 325 322 322
323 322 324 325 326 324 325 326 325 327 327 327 328 330 330 328 329 330 330 331 331 332 332 330 326 326 329 327 326 327 329 329 330 331 329 328 327 327 327 327 326 325 324 323
321 321 323 322 322 323 324 323 323 323 323 325 326 326 327 328 327 327 327 327 326 323 322 321 318 315 319 321 323 324 326 326 326 326 326 326 326 326 326 325 325 324 323 323
323 324 322 322 324 323 321 320 320 320 320 320 324 325 324 324 325 326 326 321 321 320 317 314 313 314 314 318 321 321 321 321 321 323 324 325 325 325 324 325 324 324 324 323
321 322 321 318 320 322 325 320 320 320 320 320 320 321 321 323 322 322 320 319 317 319 320 317 316 315 313 316 318 318 317 317 318 318 318 318 319 319 322 322 322 323 323 322
320 322 319 318 324 321 320 319 320 319 320 320 320 320 318 318 318 317 321 320 317 317 318 318 318 317 316 315 316 317 316 316 315 314 314 314 314 315 314 313 315 319 321 321
319 319 317 317 316 316 316 317 317 317 318 318 317 317 317 317 317 317 318 318 318 318 317 319 318 318 318 318 317 317 317 315 315 314 314 313 312 313 313 313 312 312 314 316
315 313 315 314 313 313 313 313 314 314 314 315 314 314 315 316 317 316 316 317 317 317 317 318 318 317 317 317 318 318 317 317 317 316 316 316 315 314 314 314 313 312 312 313
Wind_Speed
28 31 27 27 29 28 28 26 22 23 21 24 23 12 13 4 7 7 5 6 11 9 6 6 21 33 36 38 41 40 39 39 37 37 37 34 33 32 33 32 33 32 30 29
24 28 30 28 27 27 30 29 29 26 25 20 24 20 10 17 14 11 10 9 8 11 8 7 11 27 37 36 39 38 40 39 38 35 35 34 32 31 33 31 29 29 29 29
21 23 24 26 30 24 24 26 23 24 23 17 16 13 14 14 14 14 17 15 9 12 12 9 14 24 31 37 34 38 35 38 36 36 36 35 32 32 30 29 27 27 25 25
16 18 27 16 23 25 25 21 22 21 19 18 16 14 12 8 7 6 10 11 7 8 11 17 19 24 25 32 32 34 31 34 35 34 34 33 32 29 27 27 27 25 25 26
16 18 18 25 19 21 21 23 18 20 20 19 18 18 17 15 14 11 12 9 7 13 17 22 23 26 29 27 32 28 30 28 31 33 31 31 29 27 25 22 25 24 24 23
16 22 26 16 22 21 15 15 19 20 18 11 6 14 15 16 17 16 14 13 8 14 17 17 28 30 30 28 27 30 27 27 26 28 28 26 24 19 18 20 19 22 22 23
14 15 18 12 15 12 12 3 7 7 5 5 7 7 10 14 15 16 15 14 17 16 8 12 31 30 27 28 26 28 24 25 26 25 24 21 20 17 14 15 14 17 21 22
15 16 13 7 8 12 4 8 7 6 6 5 8 10 10 13 6 1 6 6 3 3 4 16 25 23 23 21 24 26 25 25 25 23 20 18 23 23 26 23 17 15 15 15
12 10 9 9 12 6 3 3 5 5 6 6 8 10 11 5 7 3 3 4 6 2 10 11 12 23 21 22 27 26 26 25 25 24 18 23 21 15 13 20 22 21 19 17
14 14 4 15 15 5 3 6 1 6 6 2 4 5 2 5 2 2 4 6 8 13 11 11 17 18 23 28 29 29 26 24 25 24 24 23 21 19 15 15 14 16 15 12
10 10 9 8 11 9 8 10 11 14 12 15 16 15 16 13 9 5 6 8 8 10 11 13 19 23 24 28 30 28 25 24 23 25 21 21 16 12 12 12 10 12 13 11
4 16 16 13 10 14 15 15 15 15 17 16 16 14 13 12 12 12 11 13 12 17 18 18 19 20 22 25 28 27 23 22 22 22 23 24 23 19 15 13 10 9 12 12
8 7 18 3 18 19 18 15 16 15 15 15 13 13 11 11 5 12 14 14 13 16 17 18 19 17 18 20 21 23 25 25 23 23 23 25 20 16 16 14 10 8 11 12
9 9 7 18 14 16 18 17 17 16 16 15 14 13 11 10 10 10 12 15 16 18 19 16 18 17 18 17 15 19 20 20 23 24 24 20 22 21 19 17 14 8 10 11
13 14 14 10 15 20 19 17 17 16 14 12 14 10 10 11 9 11 16 12 17 19 19 18 16 16 15 12 16 18 18 16 14 17 18 17 20 22 23 20 19 13 12 12
11 14 14 13 12 14 17 18 17 15 11 8 8 6 10 13 12 13 14 15 11 8 13 15 15 16 13 12 13 13 8 12 17 14 14 14 13 13 14 19 24 19 14 13
12 15 14 17 16 16 13 9 10 14 15 5 4 7 8 8 9 11 10 11 17 18 15 11 12 15 10 8 8 12 9 7 6 19 11 12 12 9 10 15 17 21 19 22
11 9 12 11 9 9 8 8 9 9 7 21 7 7 7 7 6 5 6 12 15 20 18 14 8 9 5 6 7 4 15 15 12 11 17 12 6 7 5 7 11 13 18 26
8 10 10 9 8 5 6 6 6 3 7 4 3 3 6 5 5 6 12 11 10 9 8 7 4 1 3 7 3 7 11 8 13 15 14 9 4 3 3 12 12 16 21 23
6 5 2 2 4 8 8 9 12 11 12 9 10 8 7 9 10 12 12 10 9 8 11 9 8 8 4 4 3 8 11 11 9 9 5 5 6 13 11 8 17 17 21 20
8 12 14 11 8 12 12 10 14 11 15 16 10 8 10 14 14 9 10 7 11 11 11 9 9 5 6 3 4 6 8 9 7 14 14 15 10 12 6 11 7 9 18 19
11 11 9 9 10 10 15 15 17 17 17 15 11 14 9 10 8 12 16 12 13 12 11 14 11 11 8 7 7 7 14 14 14 10 10 7 4 5 5 7 8 8 13 13
7 9 9 9 7 9 12 12 11 10 10 10 10 12 2 10 11 8 6 14 14 12 14 12 11 9 8 11 10 5 4 4 3 10 13 8 7 8 9 11 11 10 7 10
13 11 20 15 10 8 5 3 8 6 6 4 4 5 6 8 8 8 7 4 5 6 6 5 4 4 5 7 8 3 3 5 6 6 7 3 7 6 11 12 13 10 13 14
3 8 23 14 5 7 10 8 7 12 3 3 4 5 6 4 8 5 4 6 2 2 7 9 4 4 5 4 8 3 4 5 2 7 9 10 9 5 7 9 10 12 18 18
16 11 13 11 15 14 14 11 10 12 10 10 10 17 12 14 7 8 1 8 3 3 8 10 9 8 12 16 10 7 3 2 5 8 6 6 9 7 7 6 8 12 11 14
12 15 13 15 17 18 17 16 12 12 13 9 10 13 14 11 7 6 8 10 12 11 8 4 8 6 12 8 16 11 15 15 22 15 10 8 7 8 8 8 7 8 9 10
Wind_Direction
219 245 230 235 219 219 227 240 242 238 239 224 251 202 210 248 190 231 207 181 158 179 209 205 191 188 189 187 190 192 197 202 207 206 206 208 208 206 206 206 207 203 202 204
254 226 240 247 229 230 218 225 241 247 248 245 227 247 199 194 240 219 210 239 195 170 187 219 182 180 187 190 189 191 195 199 204 202 203 205 205 205 203 206 203 202 204 205
239 240 237 237 240 234 236 222 229 240 249 256 250 267 260 216 237 235 197 210 208 172 188 203 183 175 185 192 187 192 193 197 198 196 197 199 200 201 198 200 199 201 205 205
235 234 233 248 229 237 253 240 224 240 251 261 266 267 276 279 268 267 229 216 204 238 185 192 199 184 182 189 194 192 195 192 195 192 192 191 194 194 198 203 198 198 201 203
234 235 241 243 229 234 231 249 243 225 222 229 248 262 259 258 264 252 251 267 230 229 251 190 195 191 183 185 195 199 194 191 188 187 184 183 186 194 199 200 195 199 198 199
209 230 227 230 229 237 238 257 244 248 244 257 304 236 241 250 246 255 255 255 237 229 236 245 189 188 175 183 189 198 195 190 180 175 176 176 185 189 196 192 189 192 194 206
228 228 242 246 253 180 212 192 23 14 6 320 281 304 338 310 250 233 256 246 236 237 266 250 186 183 173 177 185 188 184 176 167 168 170 172 166 174 190 189 191 189 200 205
225 226 222 215 175 204 43 106 64 12 15 358 322 307 298 311 256 306 354 324 274 133 229 166 178 167 164 168 166 166 167 162 155 156 158 159 165 178 177 173 178 177 193 207
249 241 130 81 347 58 127 86 38 331 326 329 318 299 278 48 24 29 352 343 334 320 105 125 136 147 146 144 149 151 148 145 139 141 146 152 147 146 150 157 164 192 197 200
232 251 153 158 176 143 74 118 142 6 350 307 309 294 28 89 91 83 84 59 76 98 95 101 119 129 128 132 135 135 134 137 140 131 127 138 149 154 163 154 171 188 199 194
289 159 112 116 129 140 141 112 88 56 53 55 63 48 56 44 42 93 100 88 100 98 107 112 117 122 129 130 131 129 131 128 122 124 127 130 130 143 151 156 179 195 208 184
310 328 312 132 111 95 91 83 95 90 69 52 66 72 69 62 49 48 65 79 79 84 89 107 117 125 137 132 130 131 127 133 137 130 129 131 127 119 133 154 163 185 166 172
312 32 21 137 96 81 78 76 91 83 79 82 68 64 65 68 64 77 66 73 82 97 113 118 117 120 122 132 141 140 141 144 147 151 152 153 148 148 136 130 151 146 127 149
95 62 66 6 49 74 77 70 64 68 70 69 60 61 76 88 70 83 88 94 102 104 98 107 114 114 128 136 151 140 140 154 162 164 157 161 154 165 154 152 140 126 128 141
160 134 126 110 68 60 54 70 63 54 63 49 44 54 74 71 56 71 94 97 106 114 126 126 124 123 125 129 126 142 149 160 155 137 141 148 163 165 156 156 136 125 125 132
104 94 95 93 85 61 54 54 48 35 45 20 36 36 50 55 51 41 41 61 111 101 102 112 117 103 121 140 136 140 139 161 160 136 134 144 165 175 162 145 137 142 156 161
86 90 84 72 65 64 64 60 39 22 351 45 5 18 58 67 50 41 58 66 57 79 85 102 111 122 131 183 179 138 138 131 128 140 170 165 175 187 182 156 159 158 171 173
96 99 86 75 58 60 54 101 94 65 346 320 32 58 40 66 63 75 74 72 74 75 87 96 86 93 169 234 257 171 149 167 190 195 162 159 166 177 170 172 195 175 164 175
110 100 93 93 86 32 18 28 71 128 207 244 70 16 81 93 92 6 131 103 92 87 102 113 118 269 257 257 266 5 190 139 79 79 93 94 130 80 259 109 134 156 158 168
179 176 70 137 131 105 75 25 31 52 66 55 48 78 86 96 118 99 95 97 111 125 107 109 126 133 168 265 224 272 134 145 138 139 150 181 201 170 155 180 148 161 165 175
81 83 98 82 89 72 70 80 54 22 47 47 40 33 75 60 58 101 118 92 81 101 107 101 77 42 93 33 293 267 93 64 133 140 165 211 170 218 236 176 196 186 184 185
74 90 95 85 89 85 92 64 54 42 33 26 30 37 50 75 97 69 61 84 76 49 64 65 54 39 30 9 321 286 154 168 171 164 163 202 198 115 128 170 188 201 201 204
55 59 70 76 75 69 82 91 74 67 54 18 13 75 40 85 70 63 52 23 72 94 86 72 50 30 356 342 337 9 339 337 319 194 199 190 186 194 187 182 209 224 243 233
9 12 66 358 48 90 101 96 93 111 133 98 74 33 61 135 112 112 97 43 48 54 93 108 61 37 332 308 293 290 316 301 284 272 261 207 213 215 204 210 207 209 212 207
307 39 74 342 1 34 18 57 51 15 246 144 185 161 120 99 104 46 129 119 187 293 239 212 221 296 294 262 284 244 271 271 324 352 355 346 327 309 287 287 288 218 204 218
28 51 61 50 29 39 18 65 67 32 360 49 19 3 42 76 44 351 212 218 257 270 2 210 214 239 274 333 333 343 310 199 216 214 204 247 264 289 286 276 285 289 266 231
71 29 32 37 22 8 2 345 1 6 5 14 353 340 335 357 36 0 8 355 15 352 349 194 170 206 274 348 6 10 8 16 27 14 7 346 305 279 281 270 244 258 279 284